Time,TemperatureF,DewpointF,PressureIn,WindDirection,WindDirectionDegrees,WindSpeedMPH,WindSpeedGustMPH,Humidity,HourlyPrecipIn,Conditions,Clouds,dailyrainin,SoftwareType,DateUTC
2013-01-23 00:15:00,6.1,1.0,30.37,WNW,296,0.0,2.0,80,0.00,,,0.00,weatherlink.com 1.10,2013-01-23 05:15:00,
2013-01-23 00:30:00,6.2,1.0,30.37,West,273,0.0,1.0,80,0.00,,,0.00,weatherlink.com 1.10,2013-01-23 05:30:00,
2013-01-23 00:45:00,6.2,1.0,30.37,West,266,0.0,2.0,80,0.00,,,0.00,weatherlink.com 1.10,2013-01-23 05:45:00,
2013-01-23 01:00:00,6.2,1.0,30.36,WSW,252,0.0,3.0,80,0.00,,,0.00,weatherlink.com 1.10,2013-01-23 06:00:00,
2013-01-23 01:15:00,6.2,1.0,30.36,WSW,244,1.0,2.0,80,0.00,,,0.00,weatherlink.com 1.10,2013-01-23 06:15:00,
2013-01-23 01:30:00,6.3,2.0,30.36,WNW,303,1.0,3.0,81,0.00,,,0.00,weatherlink.com 1.10,2013-01-23 06:30:00,
2013-01-23 01:45:00,6.4,2.0,30.36,NW,311,1.0,2.0,81,0.00,,,0.00,weatherlink.com 1.10,2013-01-23 06:45:00,
2013-01-23 02:00:00,6.3,1.0,30.36,West,267,0.0,2.0,80,0.00,,,0.00,weatherlink.com 1.10,2013-01-23 07:00:00,
2013-01-23 02:15:00,6.3,1.0,30.36,West,261,1.0,2.0,80,0.00,,,0.00,weatherlink.com 1.10,2013-01-23 07:15:00,
2013-01-23 02:30:00,6.2,1.0,30.36,WSW,254,1.0,2.0,78,0.00,,,0.00,weatherlink.com 1.10,2013-01-23 07:30:00,
2013-01-23 02:45:00,6.0,1.0,30.36,WSW,253,0.0,1.0,78,0.00,,,0.00,weatherlink.com 1.10,2013-01-23 07:45:00,
2013-01-23 03:00:00,6.0,0.0,30.37,WSW,250,0.0,1.0,77,0.00,,,0.00,weatherlink.com 1.10,2013-01-23 08:00:00,
2013-01-23 03:15:00,6.0,1.0,30.36,WSW,249,0.0,2.0,78,0.00,,,0.00,weatherlink.com 1.10,2013-01-23 08:15:00,
2013-01-23 03:30:00,6.1,1.0,30.36,WSW,248,0.0,1.0,79,0.00,,,0.00,weatherlink.com 1.10,2013-01-23 08:30:00,
2013-01-23 03:45:00,6.1,1.0,30.36,WSW,251,0.0,3.0,80,0.00,,,0.00,weatherlink.com 1.10,2013-01-23 08:45:00,
2013-01-23 04:00:00,6.0,1.0,30.36,WSW,251,0.0,1.0,80,0.00,,,0.00,weatherlink.com 1.10,2013-01-23 09:00:00,
2013-01-23 04:15:00,5.7,1.0,30.36,WSW,251,1.0,2.0,79,0.00,,,0.00,weatherlink.com 1.10,2013-01-23 09:15:00,
2013-01-23 04:30:00,5.3,0.0,30.36,WSW,251,0.0,2.0,79,0.00,,,0.00,weatherlink.com 1.10,2013-01-23 09:30:00,
2013-01-23 04:45:00,4.9,0.0,30.36,WSW,251,0.0,0.0,79,0.00,,,0.00,weatherlink.com 1.10,2013-01-23 09:45:00,
2013-01-23 05:00:00,4.2,-1.0,30.36,WSW,251,0.0,0.0,80,0.00,,,0.00,weatherlink.com 1.10,2013-01-23 10:00:00,
2013-01-23 05:15:00,3.5,-1.0,30.36,WSW,251,0.0,0.0,80,0.00,,,0.00,weatherlink.com 1.10,2013-01-23 10:15:00,
2013-01-23 05:30:00,2.8,-2.0,30.35,WSW,251,0.0,0.0,81,0.00,,,0.00,weatherlink.com 1.10,2013-01-23 10:30:00,
2013-01-23 05:45:00,2.1,-2.0,30.35,WSW,251,0.0,0.0,82,0.00,,,0.00,weatherlink.com 1.10,2013-01-23 10:45:00,
2013-01-23 06:01:00,1.5,-3.0,30.35,WSW,251,0.0,0.0,82,0.00,,,0.00,weatherlink.com 1.10,2013-01-23 11:01:00,
2013-01-23 06:16:00,0.9,-3.0,30.35,WSW,251,0.0,0.0,83,0.00,,,0.00,weatherlink.com 1.10,2013-01-23 11:16:00,
2013-01-23 06:31:00,0.5,-4.0,30.34,WSW,251,0.0,0.0,83,0.00,,,0.00,weatherlink.com 1.10,2013-01-23 11:31:00,
2013-01-23 06:46:00,0.2,-4.0,30.34,WSW,251,0.0,0.0,84,0.00,,,0.00,weatherlink.com 1.10,2013-01-23 11:46:00,
2013-01-23 07:01:00,0.0,-3.0,30.34,WSW,251,0.0,0.0,85,0.00,,,0.00,weatherlink.com 1.10,2013-01-23 12:01:00,
2013-01-23 07:31:00,0.7,-2.0,30.35,WSW,251,0.0,1.0,88,0.00,,,0.00,weatherlink.com 1.10,2013-01-23 12:31:00,
2013-01-23 08:01:00,2.4,0.0,30.34,WSW,251,1.0,1.0,89,0.00,,,0.00,weatherlink.com 1.10,2013-01-23 13:01:00,
2013-01-23 08:16:00,3.4,1.0,30.34,WSW,246,1.0,3.0,88,0.00,,,0.00,weatherlink.com 1.10,2013-01-23 13:16:00,
2013-01-23 08:31:00,4.2,1.0,30.34,SW,227,2.0,4.0,86,0.00,,,0.00,weatherlink.com 1.10,2013-01-23 13:31:00,
2013-01-23 08:46:00,5.0,2.0,30.34,SW,222,1.0,4.0,85,0.00,,,0.00,weatherlink.com 1.10,2013-01-23 13:46:00,
2013-01-23 09:01:00,5.8,1.0,30.34,SSW,204,1.0,4.0,82,0.00,,,0.00,weatherlink.com 1.10,2013-01-23 14:01:00,
2013-01-23 09:17:00,6.4,2.0,30.34,SSW,212,3.0,4.0,80,0.00,,,0.00,weatherlink.com 1.10,2013-01-23 14:17:00,
2013-01-23 09:32:00,7.6,2.0,30.33,SSW,207,1.0,3.0,78,0.00,,,0.00,weatherlink.com 1.10,2013-01-23 14:32:00,
2013-01-23 09:47:00,8.3,1.0,30.33,SW,236,3.0,7.0,73,0.00,,,0.00,weatherlink.com 1.10,2013-01-23 14:47:00,
2013-01-23 10:02:00,8.7,1.0,30.32,WSW,248,1.0,6.0,72,0.00,,,0.00,weatherlink.com 1.10,2013-01-23 15:02:00,
2013-01-23 10:17:00,9.7,2.0,30.32,SSW,198,1.0,5.0,70,0.00,,,0.00,weatherlink.com 1.10,2013-01-23 15:17:00,
2013-01-23 10:32:00,10.8,3.0,30.32,SW,214,5.0,7.0,71,0.00,,,0.00,weatherlink.com 1.10,2013-01-23 15:32:00,
2013-01-23 10:47:00,11.0,4.0,30.32,SW,226,2.0,5.0,73,0.00,,,0.00,weatherlink.com 1.10,2013-01-23 15:47:00,
2013-01-23 11:02:00,11.8,5.0,30.32,South,175,4.0,6.0,74,0.00,,,0.00,weatherlink.com 1.10,2013-01-23 16:02:00,
2013-01-23 11:17:00,12.0,6.0,30.32,WSW,252,1.0,7.0,75,0.00,,,0.00,weatherlink.com 1.10,2013-01-23 16:17:00,
2013-01-23 11:32:00,12.3,6.0,30.30,WSW,238,5.0,7.0,74,0.00,,,0.00,weatherlink.com 1.10,2013-01-23 16:32:00,
2013-01-23 11:47:00,13.0,7.0,30.30,SSW,192,1.0,5.0,77,0.00,,,0.00,weatherlink.com 1.10,2013-01-23 16:47:00,
2013-01-23 12:02:00,13.4,7.0,30.29,SSW,211,7.0,9.0,74,0.00,,,0.00,weatherlink.com 1.10,2013-01-23 17:02:00,
2013-01-23 12:17:00,13.3,7.0,30.28,SW,229,4.0,8.0,76,0.00,,,0.00,weatherlink.com 1.10,2013-01-23 17:17:00,
2013-01-23 12:32:00,13.7,7.0,30.27,West,262,2.0,6.0,76,0.00,,,0.00,weatherlink.com 1.10,2013-01-23 17:32:00,
2013-01-23 12:48:00,14.8,9.0,30.26,SSW,209,3.0,6.0,76,0.00,,,0.00,weatherlink.com 1.10,2013-01-23 17:48:00,
2013-01-23 13:03:00,15.0,9.0,30.25,SSW,206,3.0,4.0,77,0.00,,,0.00,weatherlink.com 1.10,2013-01-23 18:03:00,
2013-01-23 13:18:00,15.5,10.0,30.23,SSW,213,1.0,6.0,77,0.00,,,0.00,weatherlink.com 1.10,2013-01-23 18:18:00,
2013-01-23 13:33:00,16.3,10.0,30.22,SSW,198,4.0,6.0,75,0.00,,,0.00,weatherlink.com 1.10,2013-01-23 18:33:00,
2013-01-23 13:48:00,16.6,10.0,30.21,SW,225,3.0,3.0,74,0.00,,,0.00,weatherlink.com 1.10,2013-01-23 18:48:00,
2013-01-23 14:03:00,16.7,9.0,30.21,SSE,164,3.0,5.0,72,0.00,,,0.00,weatherlink.com 1.10,2013-01-23 19:03:00,
2013-01-23 14:18:00,17.0,10.0,30.21,SSW,192,1.0,6.0,73,0.00,,,0.00,weatherlink.com 1.10,2013-01-23 19:18:00,
2013-01-23 14:33:00,17.0,9.0,30.20,SSW,212,1.0,8.0,71,0.00,,,0.00,weatherlink.com 1.10,2013-01-23 19:33:00,
2013-01-23 14:48:00,17.5,9.0,30.20,SW,219,2.0,6.0,70,0.00,,,0.00,weatherlink.com 1.10,2013-01-23 19:48:00,
2013-01-23 15:03:00,17.9,9.0,30.19,SW,222,3.0,6.0,67,0.00,,,0.00,weatherlink.com 1.10,2013-01-23 20:03:00,
2013-01-23 15:18:00,18.0,9.0,30.19,SW,221,1.0,3.0,69,0.00,,,0.00,weatherlink.com 1.10,2013-01-23 20:18:00,
2013-01-23 15:33:00,17.8,8.0,30.19,South,172,2.0,6.0,66,0.00,,,0.00,weatherlink.com 1.10,2013-01-23 20:33:00,
2013-01-23 15:48:00,17.4,8.0,30.18,SSW,206,1.0,7.0,68,0.00,,,0.00,weatherlink.com 1.10,2013-01-23 20:48:00,
2013-01-23 16:04:00,17.4,8.0,30.18,WSW,257,2.0,13.0,66,0.00,,,0.00,weatherlink.com 1.10,2013-01-23 21:04:00,
2013-01-23 16:19:00,17.1,8.0,30.17,SSW,192,2.0,6.0,68,0.00,,,0.00,weatherlink.com 1.10,2013-01-23 21:19:00,
2013-01-23 16:34:00,17.2,9.0,30.17,SW,229,1.0,5.0,69,0.00,,,0.00,weatherlink.com 1.10,2013-01-23 21:34:00,
2013-01-23 16:49:00,16.6,8.0,30.17,SW,217,3.0,7.0,70,0.00,,,0.00,weatherlink.com 1.10,2013-01-23 21:49:00,
2013-01-23 17:04:00,16.5,8.0,30.16,South,180,4.0,4.0,69,0.00,,,0.00,weatherlink.com 1.10,2013-01-23 22:04:00,
2013-01-23 17:19:00,16.5,8.0,30.16,South,179,2.0,5.0,70,0.00,,,0.00,weatherlink.com 1.10,2013-01-23 22:19:00,
2013-01-23 17:34:00,16.4,8.0,30.17,South,191,2.0,4.0,70,0.00,,,0.00,weatherlink.com 1.10,2013-01-23 22:34:00,
2013-01-23 17:49:00,16.3,8.0,30.16,SW,221,2.0,5.0,70,0.00,,,0.00,weatherlink.com 1.10,2013-01-23 22:49:00,
2013-01-23 18:04:00,16.1,8.0,30.16,WSW,253,1.0,6.0,70,0.00,,,0.00,weatherlink.com 1.10,2013-01-23 23:04:00,
2013-01-23 18:19:00,15.9,8.0,30.16,SSW,206,0.0,3.0,71,0.00,,,0.00,weatherlink.com 1.10,2013-01-23 23:19:00,
2013-01-23 18:34:00,15.7,8.0,30.17,SSW,199,0.0,3.0,71,0.00,,,0.00,weatherlink.com 1.10,2013-01-23 23:34:00,
2013-01-23 18:49:00,15.6,8.0,30.17,South,178,1.0,3.0,72,0.00,,,0.00,weatherlink.com 1.10,2013-01-23 23:49:00,
2013-01-23 19:04:00,15.5,9.0,30.16,SW,225,2.0,4.0,74,0.00,,,0.00,weatherlink.com 1.10,2013-01-24 00:04:00,
2013-01-23 19:19:00,15.4,9.0,30.16,SSW,198,1.0,5.0,75,0.00,,,0.00,weatherlink.com 1.10,2013-01-24 00:19:00,
2013-01-23 19:35:00,15.2,9.0,30.16,SW,227,2.0,4.0,77,0.00,,,0.00,weatherlink.com 1.10,2013-01-24 00:35:00,
2013-01-23 19:50:00,15.0,9.0,30.16,SSW,204,1.0,4.0,78,0.00,,,0.00,weatherlink.com 1.10,2013-01-24 00:50:00,
2013-01-23 20:05:00,14.8,9.0,30.16,SW,227,2.0,3.0,78,0.00,,,0.00,weatherlink.com 1.10,2013-01-24 01:05:00,
2013-01-23 20:20:00,14.8,9.0,30.15,SSW,210,1.0,3.0,79,0.00,,,0.00,weatherlink.com 1.10,2013-01-24 01:20:00,
2013-01-23 20:35:00,14.6,10.0,30.15,SSW,196,1.0,3.0,81,0.00,,,0.00,weatherlink.com 1.10,2013-01-24 01:35:00,
2013-01-23 20:50:00,14.3,10.0,30.16,SSW,211,1.0,2.0,81,0.00,,,0.00,weatherlink.com 1.10,2013-01-24 01:50:00,
2013-01-23 21:05:00,13.9,9.0,30.16,SSW,209,1.0,2.0,82,0.00,,,0.00,weatherlink.com 1.10,2013-01-24 02:05:00,
2013-01-23 21:20:00,13.5,9.0,30.16,SSW,209,0.0,1.0,83,0.00,,,0.00,weatherlink.com 1.10,2013-01-24 02:20:00,
2013-01-23 21:35:00,13.4,9.0,30.16,SSW,209,0.0,2.0,84,0.00,,,0.00,weatherlink.com 1.10,2013-01-24 02:35:00,
2013-01-23 21:50:00,13.5,10.0,30.16,SSW,209,0.0,1.0,85,0.00,,,0.00,weatherlink.com 1.10,2013-01-24 02:50:00,
2013-01-23 22:05:00,13.5,10.0,30.16,SSW,209,0.0,1.0,85,0.00,,,0.00,weatherlink.com 1.10,2013-01-24 03:05:00,
2013-01-23 22:20:00,13.5,10.0,30.17,SSW,209,0.0,1.0,85,0.00,,,0.00,weatherlink.com 1.10,2013-01-24 03:20:00,
2013-01-23 22:35:00,13.5,10.0,30.17,SSW,209,0.0,1.0,86,0.00,,,0.00,weatherlink.com 1.10,2013-01-24 03:35:00,
2013-01-23 22:50:00,13.5,10.0,30.17,SSW,209,0.0,1.0,86,0.00,,,0.00,weatherlink.com 1.10,2013-01-24 03:50:00,
2013-01-23 23:05:00,13.4,10.0,30.18,SSW,210,0.0,1.0,86,0.00,,,0.00,weatherlink.com 1.10,2013-01-24 04:05:00,
2013-01-23 23:21:00,13.3,10.0,30.18,SSW,211,0.0,1.0,87,0.00,,,0.00,weatherlink.com 1.10,2013-01-24 04:21:00,
2013-01-23 23:36:00,13.0,10.0,30.18,SSW,210,0.0,2.0,86,0.00,,,0.00,weatherlink.com 1.10,2013-01-24 04:36:00,
2013-01-23 23:51:00,12.7,10.0,30.19,WNW,298,2.0,3.0,87,0.00,,,0.00,weatherlink.com 1.10,2013-01-24 04:51:00,